Погода в Благовещенке

Казахстан     54°22′08″N   66°58′23″E
темп.,
°C
ветер,
м/с
пор.,
м/с
влажн.,
%
обл.,
%
осадки,
мм/ч
давл.,
гПа
погр.,
м
23 мая, пн
пн2300:00+9юз71363100 1.3 1005613
03:00+8ююз613705 0.1 1007461
06:00+7ююз61376100 0.1 1009489
09:00+9ю61077100 0.1 10091244
12:00+8ююв71581100 0.7 1007835
15:00+13ююз101984100 1.0 10051277
18:00+19юз11206271 1.5 10061957
21:00+16з5148585 4.1 1007453
24 мая, вт
вт2400:00+13зсз239367 4.6 100939
03:00+12ю239178 0.1 101030
06:00+12ю358658 0.1 101184
09:00+17ю5106166 0.0 1012446
12:00+24ю7103350 0.0 10121569
15:00+26ююз792544 0.0 10112915
18:00+26ююз582814 0.0 10111927
21:00+21ююв4544100 0.0 101266
25 мая, ср
ср2500:00+18ююв4645100 0.0 101387
03:00+17ююв4744100 0.0 101390
06:00+16юв41148100 0.0 1013192
09:00+20ююв61346100 0.0 1013411
12:00+25ююв7931100 0.0 10121138
15:00+26ююв7829100 0.0 10112090
18:00+26юв583398 0.0 10101382
21:00+21вюв410494 0.0 1009162
26 мая, чт
чт2600:00+19вюв616461 0.0 1008322
03:00+18вюв718445 0.0 1006422
06:00+17вюв615470 0.1 1004350
09:00+21юв71547100 0.0 1001593
12:00+25ююв811380 0.6 9991422
15:00+28ю10123755 0.0 9982835
18:00+18зюз11147352 1.7 1003962
21:00+13з9137599 0.1 1009979
27 мая, пт
пт2700:00+11з4117557 0.1 1012665
03:00+10зюз37745 0.0 1013159
06:00+9з35760 0.0 1015132
09:00+13зюз345626 0.0 1016661
12:00+16зюз46402 0.0 10161893
15:00+19зюз45351 0.0 10152183
18:00+19зюз34335 0.0 10152097
21:00+17ссз22497 0.0 101411